Wind_Speed
5 5 6 7 9 10 11 12 12 12 11 10 8 6 7 12 19 25 32 35 36 37 34 33 33 30 28 27 22 16 13 12 3 6 5 5 10 15 24 26 31 34 29 26 29
7 6 8 10 11 11 13 14 15 15 15 14 13 11 10 10 13 20 24 35 37 40 40 36 35 33 32 28 25 20 18 15 10 2 10 4 5 11 19 23 31 35 32 26 28
7 8 9 10 11 13 14 15 16 16 16 17 17 18 17 15 16 18 20 27 36 40 43 41 38 37 34 33 30 26 23 18 18 10 10 5 3 8 13 23 28 35 35 28 28
8 9 11 12 13 15 16 17 18 18 19 19 19 20 20 21 21 21 21 23 30 38 43 45 43 40 38 36 33 30 28 23 23 21 10 7 3 3 9 20 23 34 34 30 28
11 13 14 15 16 18 19 21 21 22 22 22 20 21 21 23 23 25 25 26 25 32 41 46 47 45 43 41 38 34 32 30 27 26 21 16 10 3 5 16 21 31 31 30 30
13 15 16 18 20 21 22 23 24 26 28 26 27 26 27 27 26 28 29 28 29 29 35 44 48 49 48 46 42 38 36 34 29 22 21 16 12 3 6 14 17 26 27 29 29
20 19 20 22 22 23 25 27 28 30 31 32 34 34 33 33 34 33 33 33 31 32 32 37 45 48 51 51 47 44 40 37 35 28 24 18 13 7 9 5 13 19 23 21 22
23 23 24 26 27 27 29 29 30 33 36 36 37 38 39 37 39 42 41 37 36 34 36 36 39 44 50 54 51 48 44 41 38 32 28 21 16 14 10 10 6 12 18 16 20
26 27 28 29 30 32 33 34 35 38 38 40 41 44 42 44 44 43 44 41 39 37 36 39 39 40 43 55 56 50 49 45 42 36 32 28 24 26 22 19 6 7 13 11 14
30 32 32 34 34 35 37 38 40 40 41 40 41 41 42 43 43 41 42 43 43 42 41 41 44 43 43 57 60 55 52 49 44 41 38 35 29 29 29 24 11 6 8 9 11
34 34 35 36 37 38 40 43 43 45 44 43 44 41 38 37 37 36 38 43 45 47 45 46 46 51 52 59 62 60 56 54 49 46 42 39 34 31 25 26 16 12 7 3 9
35 36 37 38 41 43 45 48 46 43 43 44 43 40 37 33 31 34 36 39 43 47 50 51 55 58 57 60 63 63 62 58 55 50 47 45 39 32 33 29 26 17 12 6 4
36 38 41 42 44 45 47 48 45 47 44 41 39 38 36 34 32 34 39 43 44 47 53 55 58 56 60 63 63 64 66 62 59 55 52 49 46 40 33 32 25 21 18 11 7
39 42 44 46 47 48 48 48 45 44 40 35 33 34 35 35 36 39 44 46 50 55 57 61 60 60 59 67 64 65 68 67 64 60 55 52 50 47 38 34 31 25 20 15 9
44 45 44 44 46 46 47 43 40 37 32 28 29 33 37 39 41 46 48 51 55 61 69 74 75 76 69 70 72 69 70 71 69 65 59 55 54 54 45 39 37 32 33 21 16
46 46 45 45 44 42 39 37 31 27 25 26 29 34 41 45 45 40 36 37 40 45 53 60 71 80 86 78 74 73 69 71 73 70 64 59 59 56 53 46 40 36 31 28 26
47 45 45 43 41 35 33 27 24 22 22 27 32 39 43 44 44 42 36 31 28 31 34 47 54 70 85 89 83 79 72 71 75 72 66 61 59 61 55 49 42 42 36 31 26
47 45 42 37 31 28 22 21 19 19 23 30 35 38 40 42 45 45 42 31 26 26 28 34 42 53 71 91 93 88 80 73 76 77 71 67 63 62 57 54 49 47 44 34 31
44 38 34 27 24 19 17 13 16 21 27 32 34 35 39 44 43 45 42 31 28 25 22 29 37 43 59 85 96 90 85 77 77 80 74 71 70 67 63 58 53 50 46 38 37
38 32 25 20 14 11 13 15 19 23 27 31 32 36 39 40 41 45 49 39 27 24 17 24 32 39 53 75 97 93 85 80 78 80 79 76 70 70 67 62 55 52 50 46 41
26 22 18 14 12 13 14 17 20 24 26 30 36 37 38 38 39 44 47 47 35 28 18 16 26 35 50 66 94 95 88 82 77 78 79 76 74 74 70 66 62 57 52 48 45
21 18 16 15 17 16 19 22 25 26 30 33 36 37 37 35 37 42 42 46 42 28 24 14 21 32 44 65 85 94 89 84 77 79 78 75 77 72 72 68 66 60 55 52 50
20 19 19 18 21 22 24 27 31 30 32 33 37 35 35 33 33 38 41 42 44 32 22 19 15 25 44 62 80 93 91 85 80 79 83 83 83 76 71 70 66 63 57 52 50
19 21 25 25 27 31 34 36 37 34 35 35 37 36 36 35 33 36 38 39 42 40 22 18 16 23 40 62 80 90 91 88 83 80 87 90 86 81 75 73 68 63 60 54 53
26 26 28 33 35 37 40 41 43 39 37 38 39 40 38 35 31 34 39 39 40 41 25 16 16 22 37 59 79 88 90 90 86 81 81 85 83 83 80 74 72 69 64 61 61
36 37 37 36 37 35 40 43 43 43 38 40 41 41 38 37 32 30 35 37 40 40 29 19 17 20 31 55 77 84 85 88 86 81 76 81 81 82 84 78 73 72 71 66 63
45 46 46 43 43 43 44 46 45 46 47 43 44 44 35 34 34 29 33 37 39 40 36 18 23 22 28 49 71 82 83 86 87 84 81 79 83 82 84 84 79 74 75 75 68
Wind_Direction
5 11 355 343 332 331 334 330 328 323 315 305 295 274 260 253 237 230 223 219 219 221 222 218 215 218 217 219 227 227 230 229 267 317 296 331 30 40 26 29 32 40 34 35 35
342 330 326 323 320 320 320 321 319 317 314 313 301 278 258 250 247 236 229 225 217 219 219 219 218 217 216 222 229 231 236 234 240 172 295 281 330 24 31 37 34 38 35 34 32
320 316 311 312 314 315 315 312 308 305 303 300 296 289 280 260 245 247 231 229 225 220 218 218 218 219 218 220 226 226 230 224 228 229 244 258 328 16 35 40 38 39 36 35 35
304 307 309 308 311 309 306 304 300 297 295 290 286 286 285 279 267 249 243 237 229 225 221 218 217 219 218 221 222 222 226 223 223 226 248 262 264 46 14 46 43 41 33 41 38
295 308 312 309 306 305 306 302 296 294 290 287 287 285 287 283 276 265 249 239 235 231 224 219 219 219 220 219 222 220 222 223 227 221 233 259 241 169 47 60 49 44 38 37 40
292 296 301 301 303 302 303 300 295 291 289 281 281 282 282 283 281 273 263 249 236 232 228 221 221 221 221 219 218 220 222 223 227 222 219 227 229 185 157 65 47 52 47 33 39
287 289 291 294 299 297 298 297 294 287 285 279 280 278 276 283 280 277 270 258 243 236 231 225 221 224 224 222 217 217 218 220 223 214 216 215 233 207 183 79 41 57 56 31 41
289 289 290 295 297 295 298 298 294 292 289 285 280 279 277 280 282 279 272 265 254 242 231 229 223 223 225 224 220 217 216 219 219 219 211 211 218 222 228 264 333 58 61 21 37
289 291 292 294 293 294 294 294 293 293 291 286 282 281 280 281 281 276 268 261 256 247 236 230 224 221 225 224 219 218 216 215 217 216 209 211 203 210 200 216 211 83 67 29 38
289 291 293 293 293 292 292 296 297 293 294 289 287 282 280 281 279 270 260 254 250 246 239 229 223 219 223 222 218 215 216 215 215 214 209 211 204 211 210 209 215 139 79 62 41
288 291 293 293 292 293 293 297 298 294 295 292 292 288 285 285 278 266 256 249 245 245 240 232 224 217 222 223 217 215 214 215 214 213 211 210 203 210 205 217 211 161 145 85 25
289 291 291 292 293 292 296 300 299 297 295 297 294 291 291 289 277 268 259 251 247 246 243 242 233 224 218 221 218 214 212 215 212 211 212 210 208 208 215 222 201 200 166 171 89
293 294 296 295 295 296 298 301 299 298 296 294 293 291 294 293 288 278 267 261 246 246 240 239 238 231 220 221 218 215 212 212 213 211 211 209 213 209 211 217 211 205 182 168 160
294 297 298 297 295 297 301 302 299 295 293 291 292 293 298 299 296 287 277 267 258 254 247 237 236 234 225 217 218 216 212 210 212 210 210 210 210 212 210 212 216 210 181 177 177
299 298 299 301 300 300 303 303 300 295 290 293 296 302 307 307 305 299 290 279 268 258 249 243 238 232 225 218 215 216 211 209 209 209 209 210 211 212 213 211 212 217 204 194 175
302 299 300 301 303 305 303 303 301 297 298 300 304 311 313 315 319 314 303 285 269 258 251 243 235 227 222 218 213 215 212 209 208 207 207 208 212 212 213 212 209 216 205 192 180
301 300 300 300 303 303 303 302 301 309 310 310 315 316 318 320 329 332 323 312 288 278 253 239 232 223 216 211 212 209 209 209 207 205 204 207 211 214 210 211 211 216 210 196 190
299 299 298 298 300 301 302 304 311 315 310 318 316 313 317 326 334 338 335 325 305 292 262 238 226 223 214 207 207 204 204 206 205 204 202 201 207 213 207 211 211 213 219 205 198
300 299 297 297 301 297 301 316 312 314 319 321 312 313 318 327 339 343 344 329 321 318 280 242 218 217 212 205 204 202 201 203 205 203 200 202 206 210 212 209 207 210 218 208 198
300 298 293 296 297 300 304 316 315 317 316 315 309 316 321 328 340 343 348 348 326 331 292 238 219 213 209 204 201 202 200 203 204 201 202 202 205 210 217 207 208 212 216 215 202
299 290 288 284 289 299 301 304 307 313 315 316 314 316 318 326 339 343 346 351 341 335 332 253 218 207 203 201 200 200 200 201 204 201 204 200 204 211 213 216 213 212 214 217 207
288 276 267 275 289 287 296 304 309 312 308 318 319 315 318 322 336 341 342 350 350 334 337 299 239 211 199 199 197 200 201 200 202 202 201 201 200 207 212 215 213 211 214 218 222
283 263 256 270 279 285 291 294 305 310 307 313 316 316 315 321 335 336 340 345 351 339 326 326 257 226 200 200 195 198 201 200 200 202 196 199 201 205 211 211 214 217 213 213 219
280 263 257 264 277 285 287 289 296 301 303 309 314 318 313 318 326 332 334 339 343 347 316 314 275 226 210 200 196 196 200 201 200 203 199 202 207 210 210 212 212 213 215 213 217
279 275 267 272 276 282 282 285 290 296 299 305 310 315 313 312 312 325 327 332 337 341 323 285 281 235 217 205 198 197 199 203 202 204 204 208 210 212 211 210 214 212 210 211 213
274 275 275 276 277 278 281 284 287 292 294 301 303 309 309 305 305 314 321 327 331 335 328 276 271 245 220 209 201 198 200 204 205 206 207 210 209 210 211 207 214 216 212 209 209
273 275 275 275 273 274 276 279 283 288 292 295 300 302 302 299 306 314 317 320 327 332 331 279 247 248 225 213 207 200 202 204 207 208 210 210 210 209 212 212 212 215 216 214 210
Height
10927 10927 10926 10926 10925 10925 10924 10924 10923 10923 10923 10924 10924 10925 10925 10926 10927 10929 10933 10937 10942 10947 10951 10955 10959 10964 10967 10970 10972 10975 10977 10977 10978 10976 10975 10977 10978 10977 10975 10971 10966 10959 10956 10950 10943
10925 10925 10924 10924 10923 10923 10922 10921 10921 10921 10920 10921 10921 10922 10923 10923 10923 10924 10928 10930 10935 10938 10944 10950 10955 10960 10963 10967 10970 10972 10975 10976 10977 10978 10976 10978 10979 10979 10978 10974 10969 10963 10960 10953 10946
10923 10923 10922 10922 10921 10921 10920 10919 10919 10918 10918 10917 10917 10918 10918 10920 10920 10921 10923 10924 10928 10931 10936 10944 10949 10954 10959 10962 10965 10969 10971 10974 10974 10977 10976 10978 10979 10980 10979 10976 10971 10968 10964 10958 10952
10921 10921 10920 10920 10919 10919 10918 10917 10916 10915 10914 10913 10913 10913 10913 10914 10916 10917 10919 10920 10922 10925 10930 10937 10943 10948 10952 10955 10959 10964 10966 10970 10972 10975 10976 10977 10979 10979 10980 10978 10975 10972 10968 10962 10955
10919 10918 10917 10916 10916 10915 10914 10913 10912 10910 10910 10909 10908 10907 10908 10908 10909 10911 10912 10914 10916 10919 10922 10929 10936 10941 10944 10949 10953 10958 10961 10966 10968 10972 10975 10977 10978 10979 10980 10979 10978 10975 10972 10966 10960
10915 10915 10914 10913 10912 10911 10910 10908 10907 10906 10904 10902 10901 10901 10901 10902 10902 10903 10904 10907 10910 10913 10916 10921 10927 10932 10936 10941 10947 10953 10957 10961 10965 10970 10973 10975 10976 10978 10980 10980 10981 10978 10976 10974 10968
10912 10911 10910 10909 10907 10906 10904 10902 10900 10899 10897 10896 10895 10894 10894 10894 10895 10894 10895 10899 10903 10906 10908 10912 10918 10922 10926 10932 10939 10944 10951 10956 10961 10966 10970 10973 10975 10978 10979 10981 10982 10982 10979 10980 10975
10907 10905 10904 10903 10901 10899 10897 10895 10893 10891 10889 10887 10886 10885 10884 10885 10885 10884 10885 10888 10891 10896 10901 10904 10908 10913 10917 10921 10930 10937 10944 10950 10955 10962 10967 10971 10974 10975 10978 10980 10984 10986 10982 10982 10980
10901 10900 10898 10896 10893 10891 10889 10888 10886 10883 10880 10878 10876 10874 10874 10874 10873 10873 10871 10876 10880 10884 10888 10893 10898 10904 10905 10909 10919 10930 10937 10943 10949 10956 10962 10967 10971 10973 10976 10980 10984 10986 10984 10983 10982
10895 10893 10891 10888 10885 10882 10881 10879 10876 10872 10869 10867 10865 10864 10862 10861 10859 10858 10857 10861 10865 10869 10875 10881 10886 10893 10894 10895 10908 10919 10928 10936 10942 10950 10956 10962 10966 10971 10973 10977 10984 10985 10987 10986 10984
10887 10885 10883 10879 10875 10873 10871 10869 10866 10862 10858 10856 10853 10851 10850 10848 10844 10843 10845 10847 10850 10854 10860 10867 10873 10878 10876 10886 10897 10908 10918 10927 10934 10942 10949 10957 10962 10966 10970 10975 10982 10984 10988 10986 10986
10880 10877 10874 10870 10867 10864 10861 10857 10854 10851 10847 10844 10839 10838 10837 10836 10835 10832 10831 10834 10836 10840 10843 10849 10854 10858 10869 10876 10887 10897 10906 10916 10925 10934 10942 10949 10957 10963 10967 10971 10979 10984 10985 10987 10988
10871 10868 10865 10861 10857 10853 10850 10846 10842 10837 10835 10832 10830 10827 10826 10824 10823 10822 10819 10818 10822 10825 10827 10831 10837 10849 10858 10866 10876 10884 10894 10905 10917 10926 10933 10942 10950 10957 10962 10967 10975 10981 10983 10985 10987
10863 10859 10855 10851 10847 10842 10839 10834 10829 10824 10823 10821 10819 10817 10816 10814 10811 10808 10804 10804 10805 10805 10808 10813 10822 10834 10844 10854 10864 10870 10882 10893 10904 10916 10925 10935 10943 10950 10957 10962 10969 10976 10980 10983 10986
10853 10849 10845 10840 10836 10832 10827 10821 10817 10813 10812 10813 10811 10808 10804 10802 10797 10789 10782 10778 10777 10778 10781 10788 10799 10811 10824 10833 10846 10856 10868 10880 10891 10905 10917 10926 10935 10943 10951 10958 10964 10971 10978 10981 10985
10842 10838 10834 10830 10826 10822 10816 10811 10808 10806 10805 10804 10803 10799 10794 10788 10781 10771 10763 10755 10751 10750 10750 10755 10764 10779 10795 10818 10832 10845 10860 10867 10879 10891 10905 10916 10925 10933 10943 10950 10958 10965 10972 10978 10982
10831 10828 10823 10820 10817 10812 10808 10804 10802 10802 10800 10798 10794 10788 10783 10775 10767 10758 10748 10740 10733 10730 10730 10733 10740 10751 10769 10793 10809 10828 10842 10853 10864 10882 10898 10907 10916 10924 10935 10944 10951 10957 10965 10973 10978
10821 10817 10813 10810 10807 10804 10802 10800 10797 10796 10794 10791 10786 10780 10774 10767 10759 10749 10736 10728 10723 10718 10715 10718 10724 10733 10747 10767 10785 10799 10820 10836 10853 10868 10886 10897 10905 10913 10926 10935 10945 10951 10957 10967 10972
10809 10807 10803 10802 10800 10798 10796 10795 10794 10791 10788 10783 10778 10772 10766 10760 10751 10741 10730 10719 10712 10707 10705 10705 10709 10718 10730 10746 10768 10791 10806 10824 10837 10855 10874 10884 10894 10904 10915 10928 10937 10944 10950 10959 10965
10801 10798 10796 10795 10794 10793 10791 10791 10788 10786 10782 10777 10771 10767 10760 10753 10745 10734 10724 10715 10708 10703 10699 10699 10702 10707 10717 10734 10754 10778 10799 10814 10830 10846 10862 10876 10888 10896 10905 10919 10928 10936 10944 10951 10958
10794 10792 10791 10789 10789 10788 10786 10785 10784 10781 10777 10772 10765 10760 10754 10747 10740 10731 10721 10711 10703 10699 10698 10697 10698 10701 10710 10725 10745 10768 10789 10804 10823 10838 10849 10866 10876 10883 10896 10907 10918 10926 10935 10944 10951
10788 10787 10785 10784 10784 10782 10781 10779 10778 10775 10770 10766 10759 10753 10748 10743 10736 10728 10720 10711 10702 10698 10697 10697 10698 10700 10710 10721 10738 10763 10781 10794 10813 10825 10839 10855 10864 10873 10885 10897 10908 10917 10925 10935 10942
10782 10782 10780 10779 10777 10775 10774 10771 10770 10769 10763 10760 10754 10749 10742 10739 10733 10725 10719 10711 10704 10699 10698 10697 10698 10702 10709 10716 10732 10751 10769 10785 10798 10813 10828 10843 10852 10862 10874 10886 10897 10906 10916 10927 10935
10776 10776 10775 10774 10772 10769 10765 10763 10762 10762 10758 10753 10749 10744 10739 10733 10727 10720 10717 10712 10704 10700 10697 10697 10696 10699 10704 10711 10724 10740 10759 10774 10787 10802 10815 10826 10837 10849 10862 10874 10887 10897 10907 10918 10925
10770 10769 10769 10766 10765 10762 10758 10755 10752 10754 10750 10746 10741 10739 10734 10729 10724 10717 10710 10708 10704 10699 10696 10695 10695 10698 10702 10710 10720 10735 10748 10763 10775 10789 10802 10812 10825 10838 10851 10863 10875 10887 10896 10906 10915
10760 10759 10759 10758 10756 10755 10750 10746 10743 10741 10743 10738 10734 10732 10729 10723 10718 10715 10710 10704 10700 10696 10693 10692 10693 10695 10698 10705 10714 10727 10741 10754 10769 10781 10795 10802 10813 10825 10839 10853 10861 10874 10884 10893 10904
10748 10747 10746 10747 10746 10744 10741 10737 10735 10732 10730 10730 10726 10723 10720 10717 10711 10707 10703 10699 10696 10692 10688 10688 10689 10691 10694 10700 10710 10720 10730 10742 10755 10767 10778 10789 10800 10813 10826 10839 10850 10860 10871 10883 10891